K3JAR-3 Weather Reports


Display with metric or nautical units.
time (UTC)temp
F
wind
direction
speed
MPH
gust
MPH
rain 1hr
in
rain 24hr
in
rain mn
in
humidity
%
barometer
mb
20260905032028 88 175 6.0 8.0 0.00 0.00 0.00 59 1015.2
20260905031025 88 174 6.0 8.0 0.00 0.00 0.00 59 1015.2
20260905030029 88 157 4.0 6.0 0.00 0.00 0.00 59 1015.0
20260905025057 89 155 5.0 7.0 0.00 0.00 0.00 59 1014.8
20260905024017 89 161 5.0 8.0 0.00 0.00 0.00 58 1014.6
20260905023020 89 151 4.0 7.0 0.00 0.00 0.00 57 1014.5
20260905022044 90 138 4.0 8.0 0.00 0.00 0.00 55 1014.3
20260905021027 90 155 4.0 6.0 0.00 0.00 0.00 53 1014.1
20260905020024 90 133 2.0 3.0 0.00 0.00 0.00 51 1014.0
20260905015035 90 145 2.0 2.0 0.00 0.00 0.00 50 1013.8
20260905014019 91 130 2.0 4.0 0.00 0.00 0.00 49 1013.7
20260905013016 91 170 3.0 4.0 0.00 0.00 0.00 49 1013.6
20260905012025 91 131 2.0 4.0 0.00 0.00 0.00 49 1013.5
20260905011028 92 138 3.0 6.0 0.00 0.00 0.00 48 1013.5
20260905010031 93 155 4.0 6.0 0.00 0.00 0.00 47 1013.3
20260905005057 93 154 4.0 5.0 0.00 0.00 0.00 47 1013.2
20260905004020 94 156 5.0 7.0 0.00 0.00 0.00 46 1013.0
20260905003038 95 154 4.0 7.0 0.00 0.00 0.00 46 1013.0
20260905002041 96 128 5.0 9.0 0.00 0.00 0.00 46 1012.9
20260905001024 96 130 5.0 10.0 0.00 0.00 0.00 45 1012.9
20260905000028 97 144 4.0 6.0 0.00 0.00 0.00 44 1012.8
20260904235031 97 137 4.0 7.0 0.00 0.00 0.00 44 1012.8
20260904234016 97 144 4.0 6.0 0.00 0.00 0.00 45 1012.8
20260904233025 97 115 4.0 7.0 0.00 0.00 0.00 45 1012.8
20260904232023 97 141 4.0 7.0 0.00 0.00 0.00 45 1012.7
20260904231046 98 143 4.0 8.0 0.00 0.00 0.00 43 1012.7
20260904230034 99 134 5.0 7.0 0.00 0.00 0.00 42 1012.9
20260904225052 100 139 5.0 7.0 0.00 0.00 0.00 41 1012.8
20260904224017 99 138 4.0 7.0 0.00 0.00 0.00 41 1012.9
20260904223021 99 144 4.0 7.0 0.00 0.00 0.00 41 1013.0
20260904222024 100 135 4.0 7.0 0.00 0.00 0.00 40 1013.0
20260904221021 100 155 4.0 8.0 0.00 0.00 0.00 40 1013.0
20260904220019 100 151 5.0 10.0 0.00 0.00 0.00 39 1013.0
20260904215015 100 163 4.0 8.0 0.00 0.00 0.00 38 1013.1
20260904214024 100 184 5.0 7.0 0.00 0.00 0.00 39 1013.3
20260904213022 100 125 5.0 8.0 0.00 0.00 0.00 39 1013.3
20260904212025 98 154 4.0 9.0 0.00 0.00 0.00 41 1013.4
20260904211028 101 127 5.0 9.0 0.00 0.00 0.00 39 1013.6
20260904210033 101 113 6.0 9.0 0.00 0.00 0.00 39 1013.7
20260904205017 100 156 4.0 9.0 0.00 0.00 0.00 40 1013.8
20260904204026 100 141 4.0 9.0 0.00 0.00 0.00 40 1014.0
20260904203024 101 132 5.0 8.0 0.00 0.00 0.00 40 1014.1
20260904202027 100 90 4.0 10.0 0.00 0.00 0.00 41 1014.1
20260904201031 100 131 5.0 7.0 0.00 0.00 0.00 41 1014.3
20260904200015 99 169 5.0 8.0 0.00 0.00 0.00 42 1014.6
20260904195019 98 163 7.0 11.0 0.00 0.00 0.00 43 1014.8
20260904194017 101 123 5.0 8.0 0.00 0.00 0.00 41 1014.8
20260904193020 100 177 7.0 11.0 0.00 0.00 0.00 42 1014.9
20260904192023 99 167 6.0 12.0 0.00 0.00 0.00 42 1015.1
20260904191026 99 105 5.0 6.0 0.00 0.00 0.00 43 1015.2
20260904190030 98 157 6.0 9.0 0.00 0.00 0.00 43 1015.3
20260904185027 97 150 5.0 10.0 0.00 0.00 0.00 45 1015.6
20260904184018 96 190 4.0 7.0 0.00 0.00 0.00 46 1015.7
20260904183026 95 185 6.0 10.0 0.00 0.00 0.00 48 1015.8
20260904182023 94 135 4.0 8.0 0.00 0.00 0.00 51 1015.9
20260904181016 96 183 4.0 6.0 0.00 0.00 0.00 49 1016.1
20260904180030 96 166 7.0 9.0 0.00 0.00 0.00 48 1016.1
20260904175016 95 177 5.0 8.0 0.00 0.00 0.00 50 1016.3
20260904174020 95 177 6.0 10.0 0.00 0.00 0.00 51 1016.5
20260904173022 94 169 7.0 11.0 0.00 0.00 0.00 53 1016.5
20260904172025 94 182 4.0 8.0 0.00 0.00 0.00 53 1016.6
20260904171029 94 175 6.0 9.0 0.00 0.00 0.00 54 1016.6
20260904170032 93 167 5.0 7.0 0.00 0.00 0.00 55 1016.8
20260904165018 92 195 6.0 8.0 0.00 0.00 0.00 58 1016.8
20260904164021 92 182 6.0 13.0 0.00 0.00 0.00 58 1016.8
20260904163025 91 178 7.0 9.0 0.00 0.00 0.00 59 1016.8
20260904162027 91 165 8.0 10.0 0.00 0.00 0.00 60 1016.8
20260904161031 91 238 8.0 10.0 0.00 0.00 0.00 59 1016.8
20260904160021 89 201 4.0 9.0 0.00 0.00 0.00 69 1016.8
20260904155019 88 172 6.0 9.0 0.00 0.00 0.00 71 1016.8
20260904154047 87 158 5.0 9.0 0.00 0.00 0.00 72 1016.8
20260904153045 86 154 7.0 10.0 0.00 0.00 0.00 74 1016.8
20260904152029 86 182 6.0 9.0 0.00 0.00 0.00 74 1016.8
20260904151026 86 171 5.0 8.0 0.00 0.00 0.00 76 1016.8
20260904150017 87 191 5.0 9.0 0.00 0.00 0.00 75 1016.6
20260904145022 86 169 6.0 10.0 0.00 0.00 0.00 77 1016.8
20260904144018 85 187 5.0 8.0 0.00 0.00 0.00 77 1016.8
20260904143015 85 173 7.0 10.0 0.00 0.00 0.00 78 1016.7
20260904142031 84 159 5.0 7.0 0.00 0.00 0.00 81 1016.7
20260904141016 83 163 5.0 8.0 0.00 0.00 0.00 84 1016.8
20260904140020 82 159 5.0 7.0 0.00 0.00 0.00 86 1016.6
20260904135023 81 165 5.0 6.0 0.00 0.00 0.00 89 1016.6
20260904134025 81 152 4.0 6.0 0.00 0.00 0.00 89 1016.5
20260904133029 79 134 3.0 5.0 0.00 0.00 0.00 92 1016.4
20260904132032 79 133 3.0 4.0 0.00 0.00 0.00 92 1016.3
20260904131018 79 145 3.0 6.0 0.00 0.00 0.00 93 1016.3
20260904130021 78 156 2.0 4.0 0.00 0.00 0.00 94 1016.1
20260904125044 78 143 1.0 3.0 0.00 0.00 0.00 94 1015.9
20260904124027 78 139 3.0 5.0 0.00 0.00 0.00 94 1015.8
20260904123050 77 150 2.0 5.0 0.00 0.00 0.00 96 1015.8
20260904122015 77 131 1.0 3.0 0.00 0.00 0.00 96 1015.8
20260904121019 77 125 1.0 4.0 0.00 0.00 0.00 96 1015.6
20260904120022 77 165 1.0 3.0 0.00 0.00 0.00 96 1015.6
20260904115026 77 158 2.0 4.0 0.00 0.00 0.00 96 1015.6
20260904114028 77 151 2.0 4.0 0.00 0.00 0.00 96 1015.4
20260904113027 76 132 2.0 4.0 0.00 0.00 0.00 96 1015.5
20260904112016 76 140 1.0 4.0 0.00 0.00 0.00 96 1015.6
20260904111019 76 122 2.0 4.0 0.00 0.00 0.00 96 1015.6
20260904110017 76 133 1.0 2.0 0.00 0.00 0.00 95 1015.3
20260904105046 77 149 1.0 3.0 0.00 0.00 0.00 95 1015.2
20260904104049 77 139 0.0 2.0 0.00 0.00 0.00 95 1015.1
20260904103053 77 157 2.0 3.0 0.00 0.00 0.00 94 1015.1
20260904102017 77 155 2.0 4.0 0.00 0.00 0.00 94 1015.1
20260904101041 77 166 2.0 5.0 0.00 0.00 0.00 94 1015.1
20260904100024 77 150 1.0 2.0 0.00 0.00 0.00 94 1015.1
20260904095027 77 157 1.0 3.0 0.00 0.00 0.00 94 1015.0
20260904094030 77 134 2.0 4.0 0.00 0.00 0.00 93 1015.0
20260904093015 77 146 1.0 2.0 0.00 0.00 0.00 93 1015.0
20260904092019 77 139 1.0 3.0 0.00 0.00 0.00 93 1014.9
20260904091042 78 159 2.0 3.0 0.00 0.00 0.00 92 1014.9
20260904090025 78 164 3.0 5.0 0.00 0.00 0.00 92 1014.9
20260904085028 78 157 3.0 4.0 0.00 0.00 0.00 92 1015.0
20260904084112 78 156 3.0 4.0 0.00 0.00 0.00 92 1014.9
20260904083022 77 166 4.0 7.0 0.00 0.00 0.00 92 1014.8
20260904082020 77 157 2.0 3.0 0.00 0.00 0.00 92 1014.8
20260904081023 78 158 2.0 3.0 0.00 0.00 0.00 91 1014.9
20260904080027 78 156 3.0 6.0 0.00 0.00 0.00 91 1014.7
20260904075024 78 157 4.0 5.0 0.00 0.00 0.00 91 1014.8
20260904074015 78 153 3.0 5.0 0.00 0.00 0.00 91 1015.0
20260904073019 78 158 2.0 3.0 0.00 0.00 0.00 91 1015.2
20260904072016 78 163 2.0 4.0 0.00 0.00 0.00 90 1015.2
20260904071025 78 156 2.0 4.0 0.00 0.00 0.00 90 1015.2
20260904070029 78 150 3.0 5.0 0.00 0.00 0.00 90 1015.3
20260904065032 78 153 3.0 6.0 0.00 0.00 0.00 89 1015.3
20260904064030 78 155 4.0 6.0 0.00 0.00 0.00 89 1015.2
20260904063015 78 154 4.0 5.0 0.00 0.00 0.00 88 1015.2
20260904062038 78 163 4.0 5.0 0.00 0.00 0.00 87 1015.2
20260904061021 79 155 5.0 7.0 0.00 0.00 0.00 87 1015.3
20260904060025 79 160 4.0 7.0 0.00 0.00 0.00 87 1015.3
20260904055033 79 161 4.0 6.0 0.00 0.00 0.00 86 1015.3
20260904054031 79 153 5.0 6.0 0.00 0.00 0.00 86 1015.3
20260904053016 79 165 5.0 6.0 0.00 0.00 0.00 85 1015.3
20260904052020 79 166 5.0 8.0 0.00 0.00 0.00 85 1015.2
20260904051023 79 146 6.0 9.0 0.00 0.00 0.00 84 1015.1
20260904050025 79 134 5.0 7.0 0.00 0.00 0.00 83 1015.3
20260904045028 79 159 5.0 6.0 0.00 0.00 0.00 82 1015.3
20260904044031 79 153 4.0 5.0 0.00 0.00 0.00 82 1015.2
20260904043017 79 161 4.0 6.0 0.00 0.00 0.00 81 1015.3
20260904042020 79 138 4.0 6.0 0.00 0.00 0.00 79 1015.3
20260904041023 79 159 2.0 6.0 0.00 0.00 0.00 76 1015.4
20260904040040 79 137 3.0 5.0 0.00 0.00 0.00 76 1015.4
20260904035018 80 126 3.0 5.0 0.00 0.00 0.00 76 1015.3
20260904034019 80 133 3.0 5.0 0.00 0.00 0.00 76 1015.3
20260904033018 80 105 3.0 6.0 0.00 0.00 0.00 76 1015.2